Time,TemperatureF,DewpointF,PressureIn,WindDirection,WindDirectionDegrees,WindSpeedMPH,WindSpeedGustMPH,Humidity,HourlyPrecipIn,Conditions,Clouds,dailyrainin,SoftwareType,DateUTC
2013-08-29 00:00:00,61.0,56.0,-100.00,NE,37,0.0,-999.0,81,0.00,,,-99.99,,2013-08-29 07:00:00,
2013-08-29 00:42:00,61.0,56.0,-100.00,NE,37,0.0,-999.0,81,0.00,,,-99.99,,2013-08-29 07:42:00,
2013-08-29 00:53:00,61.0,56.0,-100.00,NE,37,0.0,-999.0,81,0.00,,,-99.99,,2013-08-29 07:53:00,
2013-08-29 01:00:00,61.0,56.0,-100.00,ESE,123,0.0,-999.0,85,0.00,,,-99.99,,2013-08-29 08:00:00,
2013-08-29 01:42:00,61.0,56.0,-100.00,ESE,123,0.0,-999.0,85,0.00,,,-99.99,,2013-08-29 08:42:00,
2013-08-29 01:52:00,61.0,56.0,-100.00,ESE,123,0.0,-999.0,85,0.00,,,-99.99,,2013-08-29 08:52:00,
2013-08-29 02:00:00,60.0,55.0,-100.00,NNE,25,1.0,-999.0,83,0.00,,,-99.99,,2013-08-29 09:00:00,
2013-08-29 02:43:00,60.0,55.0,-100.00,NNE,25,1.0,-999.0,83,0.00,,,-99.99,,2013-08-29 09:43:00,
2013-08-29 02:55:00,60.0,55.0,-100.00,NNE,25,1.0,-999.0,83,0.00,,,-99.99,,2013-08-29 09:55:00,
2013-08-29 03:00:00,60.0,55.0,-100.00,ESE,117,2.0,-999.0,85,0.00,,,-99.99,,2013-08-29 10:00:00,
2013-08-29 03:43:00,60.0,55.0,-100.00,ESE,117,2.0,-999.0,85,0.00,,,-99.99,,2013-08-29 10:43:00,
2013-08-29 03:53:00,60.0,55.0,-100.00,ESE,117,2.0,-999.0,85,0.00,,,-99.99,,2013-08-29 10:53:00,
2013-08-29 04:00:00,59.0,54.0,-100.00,West,263,1.0,-999.0,84,0.00,,,-99.99,,2013-08-29 11:00:00,
2013-08-29 04:42:00,59.0,54.0,-100.00,West,263,1.0,-999.0,84,0.00,,,-99.99,,2013-08-29 11:42:00,
2013-08-29 04:52:00,59.0,54.0,-100.00,West,263,1.0,-999.0,84,0.00,,,-99.99,,2013-08-29 11:52:00,
2013-08-29 05:00:00,59.0,55.0,-100.00,NW,323,0.0,-999.0,85,0.00,,,-99.99,,2013-08-29 12:00:00,
2013-08-29 05:42:00,59.0,55.0,-100.00,NW,323,0.0,-999.0,85,0.00,,,-99.99,,2013-08-29 12:42:00,
2013-08-29 05:52:00,59.0,55.0,-100.00,NW,323,0.0,-999.0,85,0.00,,,-99.99,,2013-08-29 12:52:00,
2013-08-29 06:00:00,58.0,54.0,-100.00,East,93,0.0,-999.0,85,0.00,,,-99.99,,2013-08-29 13:00:00,
2013-08-29 06:42:00,58.0,54.0,-100.00,East,93,0.0,-999.0,85,0.00,,,-99.99,,2013-08-29 13:42:00,
2013-08-29 06:52:00,58.0,54.0,-100.00,East,93,0.0,-999.0,85,0.00,,,-99.99,,2013-08-29 13:52:00,
2013-08-29 07:00:00,59.0,55.0,-100.00,East,81,1.0,-999.0,85,0.00,,,-99.99,,2013-08-29 14:00:00,
2013-08-29 07:42:00,59.0,55.0,-100.00,East,81,1.0,-999.0,85,0.00,,,-99.99,,2013-08-29 14:42:00,
2013-08-29 07:52:00,59.0,55.0,-100.00,East,81,1.0,-999.0,85,0.00,,,-99.99,,2013-08-29 14:52:00,
2013-08-29 08:00:00,63.0,56.0,-100.00,SE,145,1.0,-999.0,78,0.00,,,-99.99,,2013-08-29 15:00:00,
2013-08-29 08:43:00,63.0,56.0,-100.00,SE,145,1.0,-999.0,78,0.00,,,-99.99,,2013-08-29 15:43:00,
2013-08-29 08:53:00,63.0,56.0,-100.00,SE,145,1.0,-999.0,78,0.00,,,-99.99,,2013-08-29 15:53:00,
2013-08-29 09:00:00,72.0,58.0,-100.00,SW,218,1.0,-999.0,59,0.00,,,-99.99,,2013-08-29 16:00:00,
2013-08-29 09:43:00,72.0,58.0,-100.00,SW,218,1.0,-999.0,59,0.00,,,-99.99,,2013-08-29 16:43:00,
2013-08-29 09:54:00,72.0,58.0,-100.00,SW,218,1.0,-999.0,59,0.00,,,-99.99,,2013-08-29 16:54:00,
2013-08-29 10:00:00,76.0,57.0,-100.00,SW,217,3.0,-999.0,50,0.00,,,-99.99,,2013-08-29 17:00:00,
2013-08-29 10:52:00,76.0,57.0,-100.00,SW,217,3.0,-999.0,50,0.00,,,-99.99,,2013-08-29 17:52:00,
2013-08-29 11:00:00,82.0,57.0,-100.00,West,259,7.0,-999.0,42,0.00,,,-99.99,,2013-08-29 18:00:00,
2013-08-29 11:42:00,82.0,57.0,-100.00,West,259,7.0,-999.0,42,0.00,,,-99.99,,2013-08-29 18:42:00,
2013-08-29 11:52:00,82.0,57.0,-100.00,West,259,7.0,-999.0,42,0.00,,,-99.99,,2013-08-29 18:52:00,
2013-08-29 12:00:00,82.0,58.0,-100.00,West,278,2.0,-999.0,43,0.00,,,-99.99,,2013-08-29 19:00:00,
2013-08-29 12:42:00,82.0,58.0,-100.00,West,278,2.0,-999.0,43,0.00,,,-99.99,,2013-08-29 19:42:00,
2013-08-29 12:52:00,82.0,58.0,-100.00,West,278,2.0,-999.0,43,0.00,,,-99.99,,2013-08-29 19:52:00,
2013-08-29 13:00:00,87.0,55.0,-100.00,WNW,293,2.0,-999.0,34,0.00,,,-99.99,,2013-08-29 20:00:00,
2013-08-29 13:42:00,87.0,55.0,-100.00,WNW,293,2.0,-999.0,34,0.00,,,-99.99,,2013-08-29 20:42:00,
2013-08-29 13:52:00,87.0,55.0,-100.00,WNW,293,2.0,-999.0,34,0.00,,,-99.99,,2013-08-29 20:52:00,
2013-08-29 14:00:00,88.0,54.0,-100.00,NNW,330,5.0,-999.0,31,0.00,,,-99.99,,2013-08-29 21:00:00,
2013-08-29 14:44:00,88.0,54.0,-100.00,NNW,330,5.0,-999.0,31,0.00,,,-99.99,,2013-08-29 21:44:00,
2013-08-29 14:54:00,88.0,54.0,-100.00,NNW,330,5.0,-999.0,31,0.00,,,-99.99,,2013-08-29 21:54:00,
2013-08-29 15:00:00,90.0,57.0,-100.00,NNW,330,5.0,-999.0,32,0.00,,,-99.99,,2013-08-29 22:00:00,
2013-08-29 15:43:00,90.0,57.0,-100.00,NNW,330,5.0,-999.0,32,0.00,,,-99.99,,2013-08-29 22:43:00,
2013-08-29 15:53:00,90.0,57.0,-100.00,NNW,330,5.0,-999.0,32,0.00,,,-99.99,,2013-08-29 22:53:00,
2013-08-29 16:00:00,85.0,58.0,-100.00,SSW,213,7.0,-999.0,39,0.00,,,-99.99,,2013-08-29 23:00:00,
2013-08-29 16:43:00,85.0,58.0,-100.00,SSW,213,7.0,-999.0,39,0.00,,,-99.99,,2013-08-29 23:43:00,
2013-08-29 16:53:00,85.0,58.0,-100.00,SSW,213,7.0,-999.0,39,0.00,,,-99.99,,2013-08-29 23:53:00,
2013-08-29 17:00:00,83.0,57.0,-100.00,WSW,241,6.0,-999.0,40,0.00,,,-99.99,,2013-08-30 00:00:00,
2013-08-29 17:42:00,83.0,57.0,-100.00,WSW,241,6.0,-999.0,40,0.00,,,-99.99,,2013-08-30 00:42:00,
2013-08-29 17:52:00,83.0,57.0,-100.00,WSW,241,6.0,-999.0,40,0.00,,,-99.99,,2013-08-30 00:52:00,
2013-08-29 18:00:00,80.0,56.0,-100.00,SSW,212,4.0,-999.0,42,0.00,,,-99.99,,2013-08-30 01:00:00,
2013-08-29 18:42:00,80.0,56.0,-100.00,SSW,212,4.0,-999.0,42,0.00,,,-99.99,,2013-08-30 01:42:00,
2013-08-29 18:52:00,80.0,56.0,-100.00,SSW,212,4.0,-999.0,42,0.00,,,-99.99,,2013-08-30 01:52:00,
2013-08-29 19:00:00,79.0,57.0,-100.00,SSW,212,3.0,-999.0,46,0.00,,,-99.99,,2013-08-30 02:00:00,
2013-08-29 19:42:00,79.0,57.0,-100.00,SSW,212,3.0,-999.0,46,0.00,,,-99.99,,2013-08-30 02:42:00,
2013-08-29 19:52:00,79.0,57.0,-100.00,SSW,212,3.0,-999.0,46,0.00,,,-99.99,,2013-08-30 02:52:00,
2013-08-29 20:00:00,70.0,59.0,-100.00,SW,216,2.0,-999.0,66,0.00,,,-99.99,,2013-08-30 03:00:00,
2013-08-29 20:43:00,70.0,59.0,-100.00,SW,216,2.0,-999.0,66,0.00,,,-99.99,,2013-08-30 03:43:00,
2013-08-29 20:55:00,70.0,59.0,-100.00,SW,216,2.0,-999.0,66,0.00,,,-99.99,,2013-08-30 03:55:00,
2013-08-29 21:00:00,67.0,58.0,-100.00,WSW,238,3.0,-999.0,72,0.00,,,-99.99,,2013-08-30 04:00:00,
2013-08-29 21:44:00,67.0,58.0,-100.00,WSW,238,3.0,-999.0,72,0.00,,,-99.99,,2013-08-30 04:44:00,
2013-08-29 21:54:00,67.0,58.0,-100.00,WSW,238,3.0,-999.0,72,0.00,,,-99.99,,2013-08-30 04:54:00,
2013-08-29 22:00:00,66.0,59.0,-100.00,SSW,206,0.0,-999.0,76,0.00,,,-99.99,,2013-08-30 05:00:00,
2013-08-29 22:42:00,66.0,59.0,-100.00,SSW,206,0.0,-999.0,76,0.00,,,-99.99,,2013-08-30 05:42:00,
2013-08-29 22:52:00,66.0,59.0,-100.00,SSW,206,0.0,-999.0,76,0.00,,,-99.99,,2013-08-30 05:52:00,
2013-08-29 23:00:00,66.0,59.0,-100.00,South,188,1.0,-999.0,77,0.00,,,-99.99,,2013-08-30 06:00:00,
2013-08-29 23:42:00,66.0,59.0,-100.00,South,188,1.0,-999.0,77,0.00,,,-99.99,,2013-08-30 06:42:00,
2013-08-29 23:53:00,66.0,59.0,-100.00,South,188,1.0,-999.0,77,0.00,,,-99.99,,2013-08-30 06:53:00,